GFSWCAN_con_lsi_273.txt.gz
Lid_Strength_Index
3 3 3 2 2 2 2 3 3 4 4 4 4 5 5 5 4 4 5 5 6 10 10 10 10 12 14 14 16 17 17 19 20 21 21 22 27 25 26 25 24 25 25 26 25 25 24 22 20 20 19 27 25 24
4 4 4 3 3 2 2 2 3 4 4 4 4 4 5 5 5 4 6 5 5 9 10 10 10 10 10 12 14 16 16 18 17 19 21 22 26 25 26 23 23 23 21 23 22 21 22 20 21 23 26 23 25 21
5 5 5 4 4 3 3 2 2 3 4 4 4 4 5 5 5 5 6 6 7 10 10 11 12 11 10 11 11 16 16 15 17 16 18 20 24 21 24 23 24 21 20 21 21 20 19 20 20 24 23 20 20 18
6 6 6 5 5 5 4 3 3 3 4 4 5 5 5 5 5 5 7 6 7 10 11 14 11 13 11 11 13 13 14 15 15 17 18 20 23 19 21 21 22 20 20 20 20 18 21 19 19 16 21 22 19 19
6 6 5 5 5 5 5 4 3 3 4 4 5 5 5 6 6 7 7 6 6 8 11 12 13 13 13 12 13 13 14 15 16 17 20 21 19 20 21 21 22 20 19 18 18 16 17 17 17 17 18 19 19 19
5 5 5 5 4 4 4 4 4 3 4 4 5 6 6 6 6 7 11 7 6 7 10 13 15 18 16 12 12 14 14 14 15 17 18 19 18 18 23 23 19 18 18 17 16 17 17 17 18 17 16 17 18 18
4 4 4 4 4 4 4 4 4 3 4 4 5 5 6 6 8 11 11 8 5 7 10 12 19 15 14 13 14 14 15 16 16 17 19 19 19 18 22 23 17 18 17 18 18 17 18 18 18 19 19 19 19 21
4 3 3 3 3 3 3 3 3 2 3 4 5 5 6 6 7 11 8 6 6 9 10 12 19 20 14 16 16 15 17 17 18 18 20 20 21 21 22 19 17 17 20 22 19 18 18 21 21 21 22 21 21 20
3 2 4 3 2 2 3 3 2 1 2 4 4 5 9 11 12 11 6 6 5 9 11 15 20 20 14 17 16 17 16 19 21 22 21 21 25 24 20 18 19 18 18 20 25 24 24 22 22 24 24 23 21 20
4 3 3 3 3 3 4 3 2 2 2 2 6 11 13 10 5 5 8 10 10 10 11 16 24 22 17 18 19 19 18 19 22 25 25 26 24 20 18 17 19 20 20 22 23 23 27 25 24 23 22 21 19 19
3 3 2 0 -0 -0 0 0 0 0 0 6 7 10 11 4 10 8 12 12 10 12 12 19 21 20 17 20 20 18 18 20 24 26 25 25 26 21 22 25 22 24 23 22 25 26 27 25 24 22 24 23 23 23
1 -0 -1 -0 -0 -1 -0 -0 -0 3 6 5 6 3 4 10 13 11 12 12 12 16 17 20 21 18 19 18 19 20 19 22 23 31 27 29 21 20 25 27 27 28 29 29 31 28 26 25 27 28 26 23 23 22
-1 -1 -1 -1 -1 -0 -0 -1 -1 -0 1 3 10 13 10 13 15 13 16 15 18 19 19 21 21 19 19 18 20 20 20 22 29 32 28 23 20 24 25 28 28 31 33 34 32 33 33 32 31 29 26 28 26 23
-1 -1 -1 -1 -1 -1 -1 -1 -1 -0 4 9 12 15 15 13 11 11 13 15 15 20 20 18 20 20 22 19 21 20 26 25 33 33 26 20 21 23 29 30 27 27 30 31 31 33 34 34 32 31 29 30 28 26
-1 -1 -1 -1 -1 -1 -1 -1 -1 2 6 10 11 17 15 13 11 12 13 16 16 15 16 19 21 19 25 23 23 25 27 24 28 25 21 22 25 28 30 30 29 29 30 31 34 34 33 34 35 33 31 31 30 29
-1 -1 0 -1 -1 -1 -1 -1 1 2 4 6 8 9 11 11 14 11 10 13 13 11 17 16 17 18 21 22 26 23 22 22 20 23 23 25 27 32 34 34 31 30 31 31 31 33 33 32 32 31 33 31 31 30
-1 3 -1 -1 -1 -1 -1 1 2 5 6 8 13 16 10 10 11 12 12 12 11 11 12 13 16 16 19 24 22 22 22 18 23 26 26 27 26 31 34 33 33 31 29 30 30 29 30 31 31 28 27 30 32 31
2 1 -1 -1 -1 0 2 3 7 6 13 13 14 14 12 12 12 13 13 13 11 12 13 15 17 21 20 20 22 19 24 27 25 26 27 28 29 33 33 31 31 31 31 31 30 30 29 28 28 29 32 32 29 29
2 1 -1 -1 0 3 5 7 8 9 11 19 18 15 14 13 12 12 14 12 10 12 14 14 17 20 19 22 23 26 26 24 25 26 28 30 29 28 30 30 30 30 30 32 30 30 30 30 31 30 30 29 29 30
-1 -1 -1 -1 0 5 7 9 9 14 15 13 17 16 14 14 13 15 13 13 12 11 13 15 19 23 27 27 27 27 26 24 24 26 26 27 28 28 29 30 30 31 30 31 29 29 30 29 29 30 30 30 29 29
0 1 -1 0 5 7 9 13 16 14 17 14 15 13 15 16 14 13 13 13 13 13 16 27 30 29 25 29 28 27 27 26 26 25 27 28 29 28 29 30 30 29 30 31 30 30 30 31 31 31 31 30 32 31
3 -1 3 5 8 12 13 14 14 15 12 14 15 16 16 16 16 15 14 15 19 28 27 24 24 26 28 26 29 28 25 24 25 25 26 26 27 28 29 30 30 31 31 32 31 32 31 31 31 31 30 30 28 28
1 2 5 8 11 14 16 15 16 17 14 15 15 15 15 15 14 14 17 24 26 26 27 25 24 25 26 24 27 26 25 23 26 26 27 28 29 29 31 32 32 31 31 32 33 32 32 30 30 30 30 29 29 29
2 7 9 11 13 17 18 18 20 17 16 16 18 18 17 16 15 17 21 29 29 28 26 25 24 27 28 27 27 27 27 25 26 27 27 28 30 31 31 32 32 32 33 32 32 32 32 32 31 31 31 31 31 31
9 11 11 14 17 19 20 18 22 19 18 16 18 17 14 14 15 16 20 32 30 30 29 27 24 23 26 29 27 28 27 27 27 29 29 29 30 30 31 32 32 32 33 31 33 33 33 33 31 32 32 32 32 32
14 16 16 20 21 17 18 21 21 19 20 19 17 17 15 15 17 18 28 32 31 31 31 30 28 25 27 26 27 27 28 26 27 29 30 29 29 28 29 30 31 31 31 33 33 32 32 32 32 32 32 32 31 31
21 23 25 25 21 19 17 21 21 19 20 20 17 18 16 17 20 33 31 31 31 32 31 30 32 28 28 29 29 28 27 27 28 29 29 29 30 30 29 30 31 30 29 30 31 30 30 30 30 29 30 31 32 33
22 22 20 23 24 24 20 23 22 22 24 25 25 20 17 24 27 34 33 30 31 30 30 30 30 29 29 29 28 28 28 28 28 28 28 29 30 30 30 29 27 25 28 28 28 28 29 30 31 31 32 33 33 34
21 21 18 21 23 24 26 25 25 30 31 30 27 31 34 34 33 34 32 32 30 30 31 31 30 28 29 29 29 29 28 28 27 28 29 29 29 31 31 31 29 28 26 27 25 28 31 31 32 33 34 34 37 37
21 26 27 27 23 26 30 31 32 31 30 31 32 33 33 32 32 31 32 31 31 31 30 29 28 28 30 29 30 30 30 30 29 27 28 28 30 31 31 30 30 30 30 30 31 31 27 32 31 34 33 34 35 35
23 23 27 30 30 29 29 29 29 29 30 31 32 33 33 33 32 31 32 32 31 30 30 30 31 29 29 29 29 29 30 30 30 30 29 30 30 31 32 32 33 32 32 32 33 33 33 34 34 35 35 36 37 35
27 28 28 30 30 28 28 29 28 28 30 31 33 33 33 33 33 32 33 33 31 32 30 30 31 32 31 30 29 29 29 30 30 30 30 31 32 33 33 33 33 32 33 33 33 34 35 35 35 35 36 37 38 38
27 28 29 29 30 33 31 29 29 30 31 32 33 33 34 34 35 34 31 32 31 31 32 32 31 30 29 28 28 29 29 29 28 27 28 29 30 31 33 33 32 32 33 34 34 34 35 36 36 38 38 38 39 39

GFSWCAN_con_lsi_279.txt.gz
Lid_Strength_Index
2 2 2 2 2 2 2 2 2 2 2 3 3 4 4 5 5 4 4 3 5 8 7 6 6 8 9 10 11 12 13 14 15 17 17 16 18 19 21 18 21 19 20 21 19 19 18 15 16 14 11 15 15 13
2 2 2 2 3 3 3 3 3 2 1 2 3 3 3 4 5 5 6 4 4 8 8 7 6 6 6 8 9 11 11 12 12 15 15 15 18 18 19 19 18 20 16 16 16 14 12 14 13 13 15 13 15 13
2 2 3 3 3 3 3 3 3 3 3 2 2 2 3 4 4 5 5 4 5 9 9 8 9 7 7 7 7 10 11 10 11 11 13 14 17 16 18 19 18 18 15 17 16 12 13 13 13 13 14 14 13 12
3 3 3 4 4 4 4 4 4 4 3 3 2 2 3 3 4 5 6 4 6 9 12 10 8 10 8 8 8 8 10 10 10 10 13 14 16 14 16 17 18 16 17 16 16 14 13 12 12 11 13 15 14 13
4 4 4 4 4 4 5 5 5 4 4 4 3 2 2 3 4 4 4 5 4 8 12 10 9 9 10 10 9 9 10 11 12 13 13 15 14 16 15 18 18 17 17 17 15 12 12 11 12 11 12 14 14 14
4 4 4 5 5 5 5 5 5 5 4 4 3 3 2 3 4 5 10 4 5 5 10 13 9 11 11 11 11 11 10 10 10 11 11 11 13 15 16 17 15 15 14 13 14 13 13 13 13 12 13 12 13 14
3 4 5 5 5 5 5 5 5 5 4 4 4 3 2 3 4 8 9 6 4 5 10 12 11 12 12 11 11 11 11 11 11 11 12 12 13 15 16 17 13 14 13 14 14 15 15 14 13 13 14 13 14 15
3 3 3 4 5 5 5 5 4 4 4 4 4 3 3 3 5 8 5 4 5 8 10 14 12 13 12 13 13 11 12 12 12 12 12 14 14 15 17 15 14 13 12 13 14 15 14 16 17 17 16 16 18 17
3 3 3 4 4 4 3 3 3 3 3 3 3 2 5 9 10 9 6 5 5 8 12 12 14 14 12 13 13 13 12 15 12 14 14 14 14 17 14 14 14 14 15 15 17 18 18 18 16 17 18 18 17 16
3 3 3 4 3 3 3 2 2 2 2 2 4 8 10 9 6 5 7 11 11 11 11 15 12 13 12 14 14 14 14 14 16 15 16 17 17 13 12 13 13 14 14 17 18 18 20 20 19 17 18 17 16 16
3 3 3 4 3 3 3 2 2 2 2 7 9 10 8 4 5 8 12 13 12 14 11 11 12 13 12 14 14 13 14 14 18 17 18 16 18 14 13 15 17 19 16 15 15 15 17 17 16 18 18 17 18 18
3 3 3 3 2 3 2 1 2 4 6 6 6 5 7 8 10 12 13 11 13 15 12 13 13 13 12 12 13 14 15 16 18 19 19 19 14 12 14 16 20 22 22 22 22 21 20 20 21 21 22 21 20 20
2 2 2 2 2 1 1 2 2 2 3 5 7 10 10 12 15 16 17 15 14 12 13 13 14 13 14 14 13 15 17 17 19 20 19 16 12 14 15 18 21 23 24 24 24 25 25 25 25 26 24 22 23 23
1 1 1 2 1 1 1 1 2 3 5 9 11 15 13 15 14 13 12 11 10 11 12 12 13 13 12 14 12 15 16 19 20 22 20 13 14 18 19 20 22 21 23 24 24 25 26 27 26 26 26 25 25 23
1 2 1 1 1 1 1 1 1 2 4 9 9 13 13 9 9 8 8 8 8 8 9 11 12 12 12 13 12 16 20 20 18 15 12 13 19 20 19 20 22 23 23 24 25 25 26 27 27 27 26 26 25 24
1 1 2 1 1 1 -0 -1 2 3 5 8 9 11 10 10 10 9 8 7 5 6 6 8 11 11 13 12 15 15 15 17 13 13 14 18 19 21 22 23 23 24 24 24 24 25 25 26 27 26 25 25 25 23
0 2 0 -0 -1 -2 -1 2 2 5 6 8 10 8 7 7 8 7 6 6 4 6 10 9 12 11 11 14 13 11 13 11 9 14 18 20 21 21 23 23 23 24 24 24 25 25 24 24 25 23 24 24 23 24
2 0 -1 -2 -1 -0 1 2 3 5 8 7 9 7 8 5 6 6 5 4 5 7 7 10 8 11 14 15 12 10 11 13 16 19 20 22 22 23 23 22 23 24 25 25 25 25 25 24 24 24 24 23 23 23
1 -0 -1 -1 -0 2 4 4 3 8 8 8 8 8 6 5 4 4 4 4 4 3 5 7 10 12 13 10 13 14 15 17 18 18 21 24 22 23 23 23 24 25 25 25 25 26 26 26 26 24 23 23 24 24
-1 -1 -1 -1 -0 4 6 6 5 7 10 8 8 8 6 6 4 4 5 5 5 6 8 10 11 10 10 10 15 17 18 19 20 20 20 21 21 22 22 22 24 24 24 25 25 25 24 25 25 25 25 25 25 26
-0 -0 -1 -0 3 4 6 7 8 8 9 9 8 8 7 8 7 7 6 5 7 9 10 8 8 7 17 18 18 19 21 21 20 19 18 21 22 22 23 23 24 24 24 24 25 26 26 27 26 25 26 26 26 26
2 -1 2 1 5 7 6 8 8 9 10 10 10 9 9 9 8 7 6 9 10 9 9 12 16 17 19 19 19 20 21 22 22 23 23 22 22 23 23 23 24 25 25 26 25 26 26 26 26 26 26 27 28 28
-0 1 4 4 7 8 10 10 10 10 11 11 10 10 10 10 8 7 10 10 13 18 19 20 19 19 20 19 20 20 21 22 23 23 23 23 24 24 24 24 24 25 27 28 26 26 27 26 26 26 27 27 27 28
1 4 6 8 7 11 12 13 12 12 12 11 12 12 11 9 9 11 14 11 17 20 21 20 20 20 20 21 21 21 21 21 22 23 23 24 26 26 26 27 27 27 27 26 26 27 27 27 27 27 27 28 29 29
8 8 8 11 12 14 16 15 15 14 14 13 13 11 11 10 13 14 14 14 22 22 23 23 20 19 20 21 22 22 21 21 23 24 25 25 26 27 28 28 28 28 26 26 27 28 28 28 28 28 29 29 30 30
11 12 12 12 15 14 15 17 16 15 14 14 13 12 12 13 16 16 16 24 25 26 26 27 26 24 21 22 22 23 24 22 23 25 26 24 24 25 27 27 27 28 27 26 26 28 28 28 29 30 30 30 30 30
15 15 15 18 15 15 17 16 15 14 16 15 14 15 15 20 18 18 25 26 26 26 26 26 27 27 25 23 24 24 25 25 24 26 26 27 27 26 25 26 28 28 26 26 26 27 29 30 30 31 32 32 32 31
13 18 17 19 19 19 18 17 16 15 13 17 15 17 17 16 15 24 26 26 27 27 27 26 25 25 24 24 25 25 26 26 26 26 26 27 27 27 26 26 26 26 27 27 28 28 29 30 31 32 32 33 33 32
19 20 17 25 23 20 18 16 15 18 22 18 15 18 19 25 27 28 27 27 27 27 27 26 25 24 24 24 25 25 25 25 25 26 28 29 28 29 26 27 27 27 27 28 27 30 31 31 32 33 33 33 32 32
21 19 20 24 20 17 22 25 24 26 25 26 27 28 28 28 28 26 28 29 28 27 26 25 25 24 25 26 26 27 27 28 27 25 26 27 28 28 27 27 28 27 27 28 29 29 27 29 29 30 31 31 32 32
20 20 23 24 25 25 26 26 26 27 28 29 29 27 27 28 27 27 28 27 27 27 27 26 26 25 25 26 26 27 27 28 28 27 27 27 28 28 29 29 29 29 29 30 30 30 31 31 32 33 34 34 35 34
21 21 21 22 27 28 28 28 28 28 29 29 29 29 29 29 30 29 28 29 29 28 26 26 26 27 27 27 28 28 27 28 28 28 28 29 29 29 29 29 29 30 30 31 31 31 32 32 33 34 35 36 37 37
23 24 26 27 30 31 29 28 28 28 28 28 28 29 30 29 29 29 29 29 29 27 27 28 27 27 27 28 28 28 28 27 27 26 27 28 29 29 30 30 30 31 31 32 32 33 33 34 35 36 37 37 38 38

GFSWCAN_con_lsi_285.txt.gz
Lid_Strength_Index
1 1 1 1 1 1 1 1 1 1 2 2 2 3 3 4 5 7 6 4 6 9 12 8 8 10 10 10 12 12 13 15 16 17 19 19 21 21 22 19 21 21 23 24 25 27 24 19 18 19 18 22 24 25
-0 1 1 1 1 1 1 1 1 1 1 1 2 2 3 3 4 6 9 5 4 8 12 6 7 7 7 7 9 10 11 12 12 14 18 18 21 22 22 21 17 20 18 20 19 19 17 19 17 19 21 19 21 20
-1 0 1 1 1 1 1 1 2 2 2 2 2 2 2 3 4 6 9 8 7 10 13 10 14 10 8 8 7 11 12 11 11 10 12 16 20 16 22 20 18 17 16 18 18 15 15 14 14 17 17 17 15 15
-1 -1 0 1 1 1 1 1 2 2 3 3 3 2 2 2 3 5 9 8 9 10 15 16 9 10 8 8 8 8 9 9 9 10 12 14 19 14 17 15 17 15 16 18 18 15 14 14 13 14 16 17 16 15
-1 -1 -0 1 1 1 1 2 2 3 3 3 3 3 2 3 2 6 8 7 8 10 15 17 12 12 10 10 9 8 9 10 11 13 13 14 14 14 16 16 16 16 16 17 17 14 15 13 14 13 14 14 14 16
-1 -1 -0 0 1 1 2 2 3 3 4 4 4 4 3 3 2 6 13 9 7 9 17 22 11 12 12 10 10 9 9 10 10 12 15 11 11 14 16 16 14 13 14 13 14 13 14 14 14 14 14 12 14 15
-1 -0 -0 -0 0 2 2 3 3 4 4 4 4 4 4 3 5 11 13 10 5 8 17 21 18 12 13 12 11 11 10 10 11 12 15 16 14 13 15 17 13 12 12 13 13 14 14 14 14 16 16 16 19 20
-1 -0 -0 0 0 1 2 3 3 4 4 4 4 4 4 3 4 8 8 4 7 11 11 22 21 15 13 13 13 15 13 13 16 19 16 16 13 15 16 13 12 12 12 12 13 14 13 13 17 18 19 20 20 19
-1 -1 -0 -0 1 1 2 2 3 3 4 4 4 3 5 7 9 9 4 5 8 12 13 16 23 23 15 12 13 13 17 16 19 19 19 15 18 17 15 14 13 13 13 14 15 14 16 17 16 17 20 21 21 19
-1 -1 -0 0 1 2 2 2 3 4 4 4 5 8 10 9 4 5 8 11 11 12 13 23 22 18 15 15 21 18 19 16 20 20 20 19 22 15 14 14 13 15 17 18 17 17 18 17 16 17 18 19 20 19
-0 -0 0 1 1 1 2 2 2 3 3 8 10 12 8 4 9 11 14 16 20 19 16 19 20 22 17 21 23 20 23 19 24 22 19 19 22 18 17 18 18 19 19 20 20 19 18 20 21 20 20 20 21 22
0 0 0 1 1 2 2 2 2 4 6 6 8 6 8 12 13 16 18 22 23 22 20 19 18 18 18 18 18 16 22 20 20 23 24 26 20 20 19 21 21 21 21 20 21 20 19 22 23 23 23 22 23 24
0 0 0 1 1 2 2 2 2 2 3 8 8 10 14 16 20 21 24 23 25 17 19 15 17 15 16 17 21 15 18 22 24 22 25 23 20 19 20 22 22 24 22 21 21 20 19 21 22 24 25 24 25 26
0 0 0 1 1 1 1 1 1 3 6 10 13 17 19 23 24 24 23 22 18 19 19 20 17 19 18 15 21 21 21 22 26 26 24 23 21 21 23 26 25 23 23 22 22 22 21 21 22 24 25 26 27 27
1 1 0 1 1 1 -0 0 2 5 8 12 15 20 22 21 23 20 22 20 19 17 17 18 19 16 14 17 18 21 23 25 24 23 21 20 23 23 22 23 25 24 24 24 23 22 22 21 22 23 24 25 25 25
0 1 2 0 -0 -0 1 2 4 6 10 14 15 18 24 20 13 15 20 19 19 15 17 16 19 19 22 19 18 21 25 24 21 22 20 24 26 26 25 27 26 26 26 25 24 23 23 21 21 23 23 24 25 25
1 4 0 -1 -0 0 1 5 7 9 10 14 19 21 18 18 15 17 15 13 11 12 16 17 21 19 20 20 23 24 24 20 22 22 24 27 27 27 27 27 28 26 26 26 26 24 23 21 20 21 23 24 24 25
6 2 -1 -0 1 2 7 13 15 17 18 19 15 17 17 16 15 17 16 14 12 17 18 17 16 21 21 24 24 21 20 18 23 21 21 25 28 28 31 29 28 27 27 28 27 24 23 23 23 23 24 24 24 25
4 2 -1 -0 2 8 13 13 14 20 19 21 20 18 18 17 16 14 13 13 15 15 14 19 21 22 20 20 18 13 13 18 15 19 23 23 26 28 29 30 28 28 29 29 27 26 24 24 24 24 24 25 26 26
-0 -0 -1 0 3 12 13 13 15 17 19 16 20 19 18 16 15 16 15 15 12 14 15 18 17 15 15 12 14 12 12 18 22 20 14 15 27 29 28 27 27 27 27 28 26 24 25 23 24 25 25 26 27 28
1 2 -0 4 10 13 15 9 10 15 19 17 21 17 16 19 17 17 17 17 13 15 17 14 10 8 8 8 8 9 13 19 18 18 17 19 24 25 26 26 27 26 26 27 26 27 24 25 25 26 26 26 27 27
5 -1 2 4 11 15 14 15 15 16 17 20 19 21 20 20 20 19 13 14 15 11 12 8 8 7 8 10 13 21 21 23 25 24 23 23 22 21 21 24 25 27 28 29 30 29 26 24 25 26 27 27 27 28
2 3 5 5 11 16 15 16 17 20 18 20 17 20 20 21 18 17 17 17 13 11 13 12 17 25 20 24 25 25 24 24 24 23 21 20 20 22 22 22 22 25 29 28 26 24 25 25 25 26 27 27 28 29
3 9 11 10 10 15 18 18 18 20 22 21 22 23 21 20 16 17 19 16 8 22 25 25 25 23 24 26 25 25 22 20 22 21 20 20 21 22 22 22 23 24 23 23 23 24 25 26 26 27 28 29 29 30
8 9 10 17 19 20 23 22 23 21 22 25 23 23 20 22 22 20 18 10 20 24 23 23 21 19 19 18 18 22 24 21 20 20 21 20 22 24 24 24 24 24 23 24 26 27 27 27 28 28 29 29 30 31
11 11 14 17 21 18 21 23 24 20 23 23 21 22 25 20 17 19 17 15 19 20 20 21 20 21 20 21 22 22 22 21 21 22 23 22 23 23 25 26 26 26 24 24 26 27 28 28 29 29 30 30 31 32
14 13 20 24 21 21 23 24 22 20 22 21 23 24 23 22 20 16 22 23 23 23 23 23 23 24 24 25 23 23 23 23 23 23 24 24 24 23 22 24 25 26 24 25 26 27 28 29 30 30 31 32 32 32
15 20 18 20 22 23 20 23 20 18 20 22 22 21 20 19 17 21 25 25 25 24 23 23 24 25 25 24 23 24 24 24 24 24 24 25 25 26 25 25 24 24 26 26 26 27 28 29 30 31 32 34 35 34
22 25 18 26 26 25 19 18 18 18 24 19 18 21 20 21 27 27 28 28 26 25 25 25 25 24 24 24 23 24 24 25 25 26 27 28 28 28 26 27 27 27 27 27 26 28 29 30 31 33 33 34 35 36
25 26 22 23 19 17 20 26 26 32 30 29 31 28 29 29 31 30 27 27 27 26 25 25 24 24 25 26 26 26 25 25 25 24 26 27 28 27 27 27 27 26 26 26 27 28 27 30 30 32 34 35 36 37
21 20 21 21 18 27 29 35 36 35 36 35 37 31 28 31 31 31 28 28 27 26 26 26 25 25 25 25 26 26 26 26 26 25 25 26 27 27 27 27 27 27 28 29 30 31 32 33 34 36 37 38 39 38
21 23 21 20 28 31 29 28 34 34 36 34 32 37 34 34 32 31 32 29 29 29 27 25 25 26 25 25 26 26 25 26 26 26 26 27 28 28 28 28 28 29 30 31 31 32 33 34 35 37 38 40 40 40
31 33 32 33 33 31 32 32 33 32 35 36 34 35 37 34 28 31 34 33 30 28 28 25 25 25 26 26 27 27 27 27 26 24 25 26 27 27 29 29 30 31 31 32 33 34 35 36 37 38 39 40 41 41

GFSWCAN_con_lsi_291.txt.gz
Lid_Strength_Index
1 -0 -1 -1 -1 -1 -1 -0 0 0 1 2 2 3 3 3 5 7 7 5 6 11 13 8 8 10 10 13 14 15 15 13 15 16 17 17 17 21 18 22 23 22 23 23 22 24 25 18 18 18 17 20 21 26
1 1 -0 -1 -1 -1 -1 -0 -0 0 1 1 1 2 2 3 4 6 10 7 5 9 13 7 7 8 8 8 11 14 14 12 12 14 16 15 17 17 20 24 16 19 19 21 19 18 16 17 16 16 20 17 16 20
1 1 -0 -1 -1 -1 -1 -1 -0 0 0 1 1 1 2 2 3 6 10 9 10 14 12 14 15 11 9 9 8 13 10 10 11 10 12 15 16 14 20 19 19 17 16 18 17 15 15 14 14 16 15 15 14 15
1 1 0 -0 -1 -1 -1 -1 -0 0 1 0 0 1 1 2 3 6 10 9 11 14 20 19 8 10 9 9 8 7 9 9 9 9 12 16 17 14 16 16 16 15 15 16 16 15 13 14 13 14 13 15 14 14
1 1 1 -1 -0 -1 -1 -1 -1 -0 0 1 1 1 1 1 2 7 9 8 9 13 21 21 13 11 10 9 9 8 8 9 10 12 16 18 15 15 15 15 15 15 15 15 16 14 15 15 14 14 14 14 13 13
1 1 0 -0 -1 -1 -1 -1 -1 -0 0 1 1 1 1 1 2 5 11 9 8 11 18 23 15 12 11 10 10 9 8 9 9 12 16 14 12 12 19 16 15 14 14 14 15 14 17 15 14 15 16 16 14 14
1 1 0 0 -1 -1 -1 -1 -1 -1 0 1 1 1 1 2 5 8 11 10 6 10 18 22 23 12 12 12 11 10 9 10 10 13 14 13 12 12 17 18 15 15 15 16 15 17 17 16 18 17 17 18 18 18
1 1 -0 0 0 -1 -1 -1 -1 -0 1 2 2 2 2 2 3 7 6 4 7 12 17 25 24 15 11 13 14 12 12 12 13 15 16 16 15 13 16 16 15 16 17 18 17 18 18 17 18 18 19 20 20 20
2 1 0 0 1 -0 -0 -1 -0 1 1 1 2 2 4 6 8 7 3 5 8 12 20 26 22 23 12 13 12 14 13 17 20 20 17 15 22 19 16 17 16 17 19 19 20 20 20 19 19 20 19 19 20 21
2 1 1 0 1 -1 -0 -0 1 1 1 2 4 7 10 7 3 3 7 10 11 15 18 21 24 16 13 14 17 20 15 17 23 20 19 21 21 18 16 17 17 18 19 21 24 20 22 21 21 21 21 19 20 20
2 1 1 0 -1 -1 -0 0 0 1 2 6 8 10 7 3 7 10 13 13 16 19 20 20 18 18 16 20 23 20 21 21 22 22 20 24 23 17 18 20 20 22 22 23 25 24 23 22 22 22 21 21 21 22
1 1 2 -1 -0 -0 0 -0 0 5 7 6 7 6 7 10 12 14 16 19 22 22 24 19 18 17 16 16 18 17 18 18 20 24 23 26 19 17 19 20 20 24 26 25 27 26 24 23 22 22 22 23 23 22
0 1 1 -0 -1 -1 -1 0 1 2 4 8 9 13 12 15 17 20 24 25 25 25 21 16 15 15 16 16 18 21 19 20 25 25 25 21 19 21 21 24 23 26 26 28 27 28 26 26 24 25 23 23 23 24
0 -1 -1 -1 -1 -0 -0 0 1 3 8 11 16 17 19 22 24 24 23 21 19 20 16 18 17 17 16 16 18 18 23 23 28 28 26 22 19 19 20 26 29 26 27 27 27 27 28 29 26 24 24 24 24 24
0 -0 -0 -0 -0 0 0 0 1 8 11 13 17 20 23 22 24 24 27 23 19 19 17 18 18 16 15 20 17 23 23 25 25 24 23 20 19 23 26 27 26 27 27 29 32 32 31 30 28 25 24 25 26 25
0 1 2 0 0 0 0 1 5 9 13 12 20 22 24 22 21 17 18 22 17 15 17 19 22 22 20 20 19 22 25 26 22 24 21 23 24 25 25 25 24 27 29 31 32 33 31 31 29 26 25 27 27 26
2 6 1 0 0 0 1 5 6 9 11 12 18 27 23 24 19 22 21 19 17 15 20 22 22 21 22 23 23 25 24 21 22 23 25 25 19 19 21 28 27 28 30 31 33 33 32 31 31 29 27 26 28 25
5 2 1 1 1 4 7 8 9 10 17 21 14 17 23 22 21 23 24 16 17 19 20 20 19 23 24 26 27 22 22 22 25 21 23 24 26 26 26 24 29 30 31 32 33 33 34 32 31 30 28 28 28 28
2 2 1 1 4 8 9 10 10 13 18 20 17 20 22 20 23 23 22 21 21 18 15 19 21 23 23 23 21 20 21 23 18 18 23 25 25 24 25 28 31 32 31 31 32 31 32 31 30 29 27 25 27 26
0 0 1 1 3 8 11 11 12 12 14 15 17 18 22 22 23 27 23 21 19 20 19 22 21 19 19 17 18 16 17 22 24 23 17 19 24 27 25 25 24 28 31 34 34 32 32 30 30 29 27 25 27 27
1 1 2 5 11 11 11 12 14 18 16 17 19 21 20 24 22 22 21 23 14 19 19 17 16 12 17 16 20 20 18 21 17 15 13 14 17 23 26 27 29 33 29 32 30 31 30 30 30 30 27 27 27 26
4 2 10 9 14 16 15 18 16 16 18 21 22 20 24 21 23 22 24 20 19 15 16 16 12 10 10 13 10 17 15 17 19 20 25 24 21 24 24 24 29 26 28 27 28 28 29 31 30 27 26 27 26 26
2 5 10 12 13 16 16 18 18 20 19 19 20 21 22 21 23 20 22 21 17 15 16 17 20 25 17 19 25 25 28 25 19 18 21 22 19 23 27 29 27 25 27 29 31 28 27 26 24 25 25 26 27 28
3 9 12 16 18 20 19 21 22 22 23 19 17 20 23 25 18 19 20 23 17 25 23 20 26 21 23 25 23 17 24 25 23 22 23 21 19 20 23 22 27 26 26 29 26 24 24 24 24 25 26 27 27 28
9 9 10 18 22 19 21 21 24 22 21 19 19 22 23 18 16 16 20 20 20 20 16 27 26 23 18 17 22 22 19 17 18 20 23 22 21 23 24 24 25 27 23 22 23 23 23 24 24 25 26 27 28 28
18 14 16 18 22 18 19 20 22 20 23 24 22 26 26 17 19 22 22 19 20 21 22 20 19 24 23 19 22 19 19 19 21 22 21 21 20 21 22 22 22 22 19 19 21 22 23 24 25 26 26 27 27 29
15 18 20 25 20 21 23 24 23 20 21 20 22 23 20 21 21 19 20 23 21 24 27 26 23 21 23 23 21 20 19 21 22 22 22 23 22 22 20 21 21 20 19 19 20 21 23 24 25 26 27 28 28 29
14 18 17 20 23 24 20 23 21 19 18 22 21 21 20 20 18 17 17 26 30 31 29 28 26 26 25 23 22 21 22 23 22 22 22 22 22 22 21 20 20 18 20 20 21 22 23 25 26 27 28 30 31 30
18 25 18 24 26 25 19 18 18 19 19 18 17 21 20 19 22 26 27 30 32 28 27 27 27 26 25 24 23 22 22 23 24 25 24 25 26 26 24 23 22 23 22 23 22 24 25 26 27 29 30 32 34 34
22 21 19 23 19 18 18 22 24 30 30 29 31 25 25 26 29 34 32 30 27 25 26 26 26 24 25 24 24 24 23 23 23 24 24 25 26 25 25 25 25 24 24 24 25 26 25 29 29 31 32 34 35 36
25 22 21 19 17 27 31 34 34 32 31 30 35 29 28 31 27 31 27 28 28 28 26 27 26 24 24 24 24 25 25 23 23 24 23 24 25 25 25 24 24 25 26 27 28 29 29 30 32 33 35 36 37 37
23 19 17 17 26 33 30 29 33 32 35 33 32 39 33 30 25 23 31 30 28 29 27 26 25 25 23 22 22 23 22 24 24 24 25 25 25 25 25 26 26 26 27 28 29 30 31 32 34 35 36 37 38 39
26 27 26 24 27 26 29 27 28 27 34 35 34 35 34 28 21 26 32 33 31 29 27 26 25 24 23 23 24 25 24 24 24 23 24 24 25 25 26 27 27 27 28 30 31 32 33 34 35 36 37 38 40 41